Volver al catálogo

STARLINK-32108

ActivoComunicacionesVLEO
NORAD 59682·PAYLOAD·🇺🇸 United States

Lanzado May 8, 2024 desde Cape Canaveral Space Force Station

Loading…

Próximos Pases (próximas 24 horas)

TLE

ActualizadoSource: CelesTrak SupGP

Época: Sep 15, 2026, 02:33 UTC

1 59682C 24086A   26258.10673611 -.00013060  00000+0 -47306-3 0  2580
2 59682  43.0031  73.7772 0001548 272.1743 277.1119 15.27583048    12

Sigue STARLINK-32108 en tiempo real con AllMySat

Download on the App Store